Theta_e
302 302 303 305 306 307 311 312 312 312 312 313 313 314 314 314 314 311 307 315 314 306 309 315 315 307 315 313 308 313 308 315 310 304 303 302 301 303 305 306 304 302 301 300 302 297 296 317 316 307 313 318 320 318
303 301 302 304 306 307 310 311 311 311 311 312 313 313 313 313 314 314 306 320 321 310 306 313 311 312 314 319 314 315 317 317 325 315 313 311 307 306 305 300 309 300 306 303 304 302 313 318 318 322 321 318 318 318
303 302 302 303 305 306 310 310 310 311 311 311 312 313 313 313 314 312 309 311 311 305 301 302 302 311 320 325 323 314 320 321 320 325 318 314 309 310 304 304 304 308 314 308 305 310 314 319 323 320 320 319 321 322
303 302 302 303 305 306 310 310 310 311 311 311 312 313 313 313 313 313 307 312 313 311 303 304 311 310 321 327 326 324 322 322 321 323 316 312 310 314 309 309 307 310 311 309 309 312 314 316 318 320 320 323 320 325
302 301 301 303 305 306 310 310 310 310 310 311 312 313 313 312 312 309 307 313 315 310 304 306 312 316 320 321 321 323 319 316 312 309 310 308 313 312 312 310 307 312 310 307 305 315 317 313 317 322 322 322 320 325
301 301 301 303 304 307 310 309 310 310 310 311 313 313 312 311 310 309 310 312 307 313 306 303 312 314 317 319 317 317 317 316 313 310 308 309 319 312 305 303 309 313 315 315 314 317 316 317 320 322 321 322 324 324
301 301 302 303 305 308 309 309 310 310 310 312 311 311 310 310 303 309 307 310 308 316 307 303 306 313 317 316 314 314 314 312 309 306 307 308 310 313 306 303 311 314 315 314 315 316 314 317 318 323 323 325 324 328
301 301 302 304 306 309 309 309 310 310 310 311 310 310 310 310 306 304 309 307 312 313 311 303 305 307 314 309 307 311 309 309 309 306 308 306 308 310 305 310 314 316 315 316 316 319 317 320 320 322 324 325 326 324
301 301 302 304 308 309 309 309 309 309 311 310 309 309 307 304 305 309 314 310 309 312 304 304 302 302 311 308 308 307 306 301 306 305 304 307 303 302 307 309 313 314 313 316 319 316 319 319 319 320 324 326 324 324
301 302 303 306 309 309 308 309 309 310 310 309 304 303 302 308 314 312 305 306 306 307 306 301 305 302 308 304 302 305 305 302 298 302 306 304 302 307 313 313 315 317 318 318 313 314 313 312 313 320 320 316 320 326
301 302 303 309 309 309 309 309 309 309 308 302 301 303 308 310 306 304 300 301 302 300 302 302 302 301 308 304 301 304 302 301 296 299 302 299 301 310 313 313 313 313 314 314 314 315 315 317 319 318 317 317 319 326
302 303 308 309 309 309 309 309 309 303 304 305 304 306 307 305 302 299 298 300 299 297 300 298 299 302 307 310 305 304 300 301 296 302 300 297 307 311 314 315 315 314 318 319 320 319 319 320 321 322 323 326 325 325
302 307 308 308 308 309 309 308 308 307 306 309 306 305 302 299 291 295 293 295 294 299 300 300 299 305 305 306 304 302 299 297 301 297 298 305 310 314 315 317 318 316 320 321 321 321 322 323 324 325 325 326 324 323
307 308 308 308 308 308 308 307 307 307 305 305 300 290 294 293 295 296 295 297 300 303 303 303 301 301 302 301 301 299 301 299 295 293 300 306 312 316 319 320 318 317 317 321 323 323 320 319 318 317 319 323 321 317
307 307 307 307 307 307 307 307 308 306 307 304 300 289 295 298 299 299 300 303 304 304 303 302 301 301 299 300 300 298 295 294 295 294 305 311 314 317 317 319 318 317 316 317 322 320 319 318 317 316 319 320 318 316
306 305 303 306 306 306 307 306 307 310 307 303 301 297 298 296 297 301 301 300 304 303 303 302 299 298 297 298 296 296 294 293 298 306 310 312 313 314 313 315 318 318 317 316 321 321 320 319 317 317 320 320 317 316
306 301 305 306 306 306 306 308 309 305 302 301 297 301 301 300 298 301 302 302 305 302 299 299 296 296 298 296 294 297 296 304 308 310 312 313 313 314 315 316 318 320 318 318 318 320 320 322 320 318 316 316 315 315
301 303 306 306 307 309 307 309 306 303 299 300 298 300 303 304 302 302 303 305 304 304 303 300 302 296 294 294 297 302 306 308 307 305 307 311 312 312 317 316 317 318 317 317 318 319 320 318 316 316 316 316 316 315
304 305 307 307 308 306 302 303 305 299 299 299 299 300 303 303 304 304 304 305 305 306 305 302 299 296 301 304 304 304 306 305 303 305 309 311 310 310 311 318 315 313 313 313 314 314 315 315 316 316 316 315 314 315
304 304 305 306 308 302 299 299 305 299 295 297 299 298 301 302 305 304 303 304 303 301 298 298 299 302 305 306 307 305 304 306 306 304 304 308 311 313 311 316 312 310 310 310 310 304 310 310 313 314 315 314 313 313
303 303 304 304 301 301 299 297 297 298 298 296 298 299 298 300 301 301 301 303 300 299 298 303 303 306 307 309 310 309 308 308 307 306 305 303 306 304 305 313 313 310 308 307 308 308 307 310 312 315 313 315 314 315
300 305 301 302 297 298 296 298 296 298 297 297 297 299 297 296 297 299 302 299 298 299 301 302 306 307 307 307 307 307 307 307 305 304 301 302 302 302 304 306 307 306 306 306 307 308 310 311 312 313 313 312 309 314
304 303 299 298 295 292 292 299 296 297 294 295 297 295 295 296 298 302 296 297 299 303 303 304 305 305 305 307 307 307 307 304 302 302 304 305 304 304 304 304 305 305 304 304 306 307 308 306 308 309 311 313 314 314
304 298 294 293 294 291 297 294 296 295 296 294 294 293 293 294 297 295 292 294 298 301 301 301 302 300 301 302 300 302 303 303 302 303 303 303 301 302 302 302 302 302 303 303 304 304 308 310 307 311 312 312 312 311
286 287 288 279 291 292 292 292 292 292 291 294 293 292 292 295 291 291 292 294 298 299 300 300 299 298 297 297 296 298 300 300 300 300 301 301 300 301 300 301 300 300 301 300 300 301 302 303 306 307 306 305 306 307
279 289 285 288 288 289 290 289 291 291 292 292 292 293 292 290 289 289 292 294 296 296 299 299 297 296 297 298 298 299 300 301 301 300 301 301 302 301 300 299 299 301 305 303 303 304 304 304 303 303 304 302 295 304
283 288 289 293 290 290 289 291 292 290 290 289 290 290 289 288 288 291 294 296 298 299 300 300 299 297 296 296 298 299 299 301 302 302 302 302 303 303 301 300 300 303 307 307 307 305 304 303 303 303 302 301 301 302
292 291 287 289 289 291 289 288 289 288 289 290 291 288 288 288 288 297 297 299 299 299 298 299 299 298 298 298 299 299 300 301 302 302 302 302 303 305 305 307 308 298 306 306 306 306 305 304 304 304 303 302 301 302
289 291 291 289 289 288 288 288 289 290 292 290 287 287 289 293 297 295 297 298 297 297 296 296 298 300 300 301 300 300 300 299 298 297 297 298 299 300 300 302 303 303 303 304 294 294 299 300 303 303 303 301 301 302
289 292 290 291 288 287 289 290 290 293 294 293 293 293 293 294 296 297 296 296 295 295 297 298 299 298 298 298 297 298 300 299 298 297 295 296 297 300 303 303 304 303 303 302 302 301 293 299 298 302 301 301 300 300
293 291 289 289 288 290 292 294 293 294 294 292 293 292 291 293 296 298 300 299 297 296 297 297 298 299 298 298 297 297 298 301 301 302 303 302 302 302 302 302 302 302 302 302 302 300 300 299 299 299 300 300 300 298
291 290 289 288 289 293 295 293 292 292 292 291 291 293 292 292 291 296 303 303 301 300 297 299 299 299 302 302 302 302 294 301 301 302 303 302 301 302 302 302 303 305 304 303 302 301 301 301 300 300 299 300 300 300
292 292 292 291 290 290 293 293 291 290 290 290 292 293 293 292 289 297 302 303 301 300 301 301 303 303 305 304 303 302 297 302 297 290 290 290 290 292 298 302 303 303 302 301 301 301 301 300 300 299 299 300 301 301
Wind_Speed
10 12 13 14 13 12 12 10 10 9 9 9 6 8 9 5 5 6 6 5 5 3 7 3 3 3 7 3 4 5 6 6 5 3 3 4 3 4 3 2 1 1 1 2 2 2 2 8 5 5 5 2 2 16
8 11 13 13 13 12 11 10 10 9 9 8 7 8 9 7 4 7 5 2 4 3 7 3 8 10 8 5 5 4 6 0 1 3 0 1 3 3 0 2 2 3 4 4 3 5 5 4 6 6 8 9 7 6
9 9 13 14 12 13 12 10 9 9 8 8 7 8 9 7 5 12 4 3 2 2 6 3 7 4 1 3 4 6 2 2 1 4 3 2 1 3 1 4 2 2 2 4 2 5 6 5 4 7 7 7 10 5
9 10 13 14 12 13 12 10 9 9 7 9 7 8 10 7 6 10 4 2 2 2 1 9 3 4 6 6 3 5 6 3 3 3 2 0 1 3 3 3 2 4 3 4 2 5 6 8 8 8 8 8 4 1
9 14 13 14 12 15 12 10 9 8 8 8 7 9 10 9 6 3 4 4 1 5 3 6 7 6 6 7 6 6 5 3 2 2 2 3 3 3 2 2 2 5 6 5 7 9 7 8 9 11 4 5 4 4
9 14 15 14 15 14 11 9 10 9 7 7 7 9 10 9 5 2 2 2 1 4 2 4 5 3 3 6 5 4 2 2 3 4 3 3 1 4 2 3 5 5 3 6 6 5 3 7 7 1 7 6 4 9
12 14 15 15 16 12 11 11 10 8 7 7 7 9 10 7 1 4 5 3 1 3 3 4 6 5 5 4 2 2 2 1 3 1 1 3 2 4 3 4 6 8 8 3 2 6 5 4 6 7 9 5 7 6
13 16 14 15 16 10 11 12 10 8 8 6 8 10 10 8 4 4 3 6 1 4 3 2 6 3 3 2 0 1 2 3 2 4 2 2 3 2 2 6 2 5 6 4 7 10 5 5 7 5 8 6 7 12
15 17 16 16 13 13 13 12 9 7 6 7 9 11 3 1 2 5 7 6 1 4 3 2 3 4 1 2 2 2 3 1 2 3 4 5 1 3 7 2 6 8 7 6 8 9 7 7 8 10 13 17 11 12
17 17 16 16 15 15 14 11 8 6 5 7 2 1 2 5 9 7 5 3 4 1 2 2 1 2 4 2 2 1 0 4 1 6 3 4 5 4 4 4 2 5 8 5 6 5 4 5 4 8 15 17 13 10
17 18 17 16 16 15 11 10 7 3 1 0 3 4 2 2 4 2 2 4 2 1 3 5 5 1 2 4 4 3 3 1 1 7 5 0 3 4 5 5 5 2 2 5 3 3 5 11 12 11 6 2 7 13
17 19 15 17 14 12 11 10 8 3 3 3 3 4 1 3 2 4 4 2 4 6 3 7 6 5 3 3 4 3 1 3 4 1 4 2 5 4 6 6 8 7 8 9 11 14 14 14 10 8 10 11 12 9
20 17 16 14 13 12 11 10 9 6 6 1 1 3 4 1 3 7 6 3 2 3 4 3 2 5 3 3 2 2 1 5 1 3 3 3 3 5 5 6 8 6 6 10 9 11 13 10 9 11 12 13 10 11
19 19 17 15 13 11 11 9 7 4 2 2 4 2 5 4 4 5 5 6 6 3 4 5 3 4 2 3 3 3 5 3 0 2 2 3 3 3 4 5 7 9 6 10 9 10 8 6 3 4 4 4 7 9
20 17 15 10 11 11 10 9 7 3 3 2 2 4 5 4 2 4 3 1 3 2 4 4 4 4 1 2 2 2 1 3 3 4 4 4 2 3 5 6 7 7 6 3 7 9 7 7 7 6 5 6 6 7
20 14 2 10 11 10 8 4 3 3 2 1 1 3 3 3 3 2 2 1 2 2 3 4 3 3 2 3 3 5 3 4 4 4 3 1 3 4 5 6 6 6 5 5 9 8 7 6 8 6 3 6 7 9
8 3 8 8 8 8 7 2 3 3 3 2 2 2 2 2 3 1 2 2 3 5 3 4 3 5 1 2 2 2 4 5 4 2 1 3 2 4 5 6 7 9 8 8 6 6 6 9 4 4 6 5 6 6
4 3 7 7 5 3 1 2 0 2 3 3 5 5 4 2 2 4 3 4 5 3 3 1 2 2 1 1 1 3 2 3 4 4 3 4 6 7 5 7 7 6 7 9 10 11 9 11 11 8 11 12 8 7
5 4 4 5 4 4 3 4 3 3 2 2 2 3 2 2 3 1 2 4 2 2 4 3 3 2 1 2 2 1 2 2 3 2 1 3 3 6 6 6 5 5 6 5 6 7 9 10 7 7 5 8 6 5
17 18 11 11 6 4 5 4 3 4 3 3 2 3 2 1 2 3 4 5 3 3 5 3 1 3 4 2 3 3 3 3 4 5 4 4 4 7 6 2 2 2 3 4 4 2 3 2 2 3 6 7 9 3
8 6 12 7 5 6 4 3 4 2 3 2 2 2 2 3 3 4 4 3 5 2 3 2 1 1 1 4 4 3 3 3 3 4 4 3 5 4 3 1 1 1 1 1 1 3 4 4 5 7 5 5 6 7
2 8 4 6 6 5 4 4 1 3 2 2 4 3 3 2 2 2 1 4 1 1 1 0 1 3 4 4 2 3 2 3 3 2 2 1 3 3 2 2 1 1 2 3 4 5 5 5 3 4 4 4 2 4
5 6 5 7 6 6 3 3 3 3 3 2 3 3 2 0 2 2 2 1 2 0 2 2 2 2 4 2 2 1 1 2 2 3 4 3 3 3 3 3 0 0 3 4 2 3 4 5 3 3 3 2 3 4
6 5 3 3 3 2 2 2 2 1 2 3 2 3 3 1 3 4 0 2 3 2 4 4 1 1 2 2 2 3 5 2 2 4 3 2 3 4 4 3 3 3 3 1 3 4 5 5 6 1 3 5 5 5
7 1 6 2 3 4 3 2 1 1 2 3 2 1 2 2 2 1 1 3 3 4 4 3 1 1 2 2 2 3 5 5 3 4 3 3 2 2 4 3 3 2 2 4 4 3 3 3 3 4 5 5 5 3
5 3 5 4 3 4 5 4 5 5 3 3 4 2 2 2 2 2 2 2 1 0 2 3 3 4 4 2 2 4 4 3 3 1 3 1 1 2 1 2 3 4 2 3 3 3 4 4 5 7 6 4 5 5
3 1 3 3 3 2 2 2 2 3 2 3 3 2 2 2 3 3 2 2 2 2 2 3 4 4 2 2 2 2 3 3 1 4 4 4 3 2 3 2 3 3 3 2 5 4 4 2 1 1 1 2 3 4
3 4 3 1 4 3 3 2 3 2 2 1 4 3 4 3 1 2 1 2 1 2 4 4 3 3 2 3 3 4 5 5 6 5 4 4 5 5 6 4 3 4 4 4 2 2 3 2 2 3 3 3 3 4
4 2 5 6 4 5 4 3 3 3 2 3 2 1 1 1 2 1 2 2 1 4 4 4 5 4 5 4 4 4 4 4 6 7 7 4 4 5 4 4 4 5 4 5 6 4 7 6 6 6 6 3 1 4
1 2 3 2 2 1 3 2 2 2 1 2 2 3 4 3 2 1 1 2 1 1 2 2 2 2 2 2 4 5 3 3 1 2 1 1 2 3 3 4 4 3 3 3 4 5 6 4 5 5 3 1 1 1
2 2 1 1 1 2 4 4 3 1 1 1 1 2 3 3 5 3 8 6 4 3 1 3 3 2 2 2 2 3 4 3 1 3 4 3 1 1 2 3 2 3 3 4 5 4 5 5 4 5 6 7 6 5
1 1 2 3 3 4 3 1 1 3 3 3 4 2 2 1 2 4 10 9 8 8 8 6 6 5 5 5 3 3 7 4 3 2 4 3 1 1 2 3 3 3 4 5 5 4 5 7 6 7 8 6 6 4
1 1 1 1 2 1 2 2 2 3 3 3 4 5 6 6 5 4 3 7 6 7 6 5 5 3 8 8 5 5 6 2 3 4 6 5 4 2 2 2 3 4 5 5 6 6 7 9 8 9 9 7 6 5
Wind_Direction
273 285 290 300 298 298 261 221 220 221 230 241 253 270 273 274 254 171 260 195 161 184 275 278 316 348 336 17 108 281 38 356 34 80 137 249 210 251 82 58 35 122 46 56 122 89 8 2 4 79 186 254 320 47
258 280 290 299 301 298 267 224 219 220 232 242 257 272 276 277 270 194 268 257 144 147 243 252 248 245 207 201 138 9 155 200 182 85 301 243 329 27 125 273 12 25 168 177 101 207 273 284 138 197 187 169 149 168
258 291 288 294 294 299 264 226 219 221 232 246 258 274 281 293 276 209 268 288 76 66 311 7 261 280 312 172 164 113 317 192 35 178 177 240 19 122 345 251 55 340 103 78 114 293 250 227 193 187 198 176 213 208
271 291 285 291 285 293 252 225 218 223 232 250 266 282 286 291 283 208 216 236 125 135 146 279 295 255 180 162 125 135 145 53 126 99 120 200 170 164 208 204 138 217 113 155 76 298 297 272 250 228 216 185 233 213
275 289 285 290 288 277 243 224 218 222 234 253 275 288 293 303 304 238 260 258 228 132 210 269 313 265 148 146 124 113 99 97 87 47 91 240 244 91 341 60 223 194 193 167 218 198 199 232 220 232 265 248 238 338
285 281 288 282 282 275 231 221 217 221 238 259 281 294 298 308 356 148 283 306 320 141 106 322 281 219 169 144 146 121 155 126 113 139 228 268 226 101 120 207 259 217 198 173 214 204 238 300 266 147 235 241 269 281
280 276 281 280 284 248 226 218 217 221 243 264 290 300 303 309 119 174 195 242 4 104 121 329 319 275 147 95 41 69 22 212 132 181 226 197 285 97 135 197 248 211 219 231 71 103 322 289 258 243 223 241 233 147
270 282 271 281 274 225 221 213 209 219 246 276 297 300 302 288 275 322 254 198 172 109 93 137 268 12 120 132 242 180 186 23 309 204 342 166 338 96 252 253 268 160 191 187 185 223 236 234 255 140 82 342 160 118
265 277 273 282 230 210 213 204 203 221 256 290 299 299 309 80 159 236 128 112 58 117 160 151 184 223 23 154 168 1 112 164 279 198 220 105 288 224 227 260 197 192 187 187 178 198 222 210 245 81 82 65 40 13
273 260 275 260 196 200 199 191 199 224 269 308 324 129 222 224 120 115 16 45 23 318 70 205 238 251 103 89 254 78 91 200 170 247 91 133 240 272 283 277 205 199 210 212 163 214 224 242 204 104 123 123 138 222
261 266 273 200 191 192 179 184 193 229 336 121 207 221 241 226 72 55 150 138 201 202 193 219 190 180 299 121 202 191 185 177 94 265 125 282 353 279 314 6 338 351 308 309 248 23 166 93 105 98 101 37 236 183
261 275 219 182 182 171 174 183 174 166 204 210 271 279 329 81 59 143 191 228 157 208 209 153 208 174 269 112 88 326 148 46 234 294 80 59 262 288 2 344 346 2 72 69 109 104 105 115 132 172 188 168 217 160
273 204 178 174 167 168 181 191 204 269 319 234 210 170 103 253 75 177 191 224 192 207 180 141 128 149 8 51 77 83 27 243 67 44 129 202 280 332 359 1 20 27 81 114 116 124 136 153 174 182 180 171 164 161
188 166 166 161 163 175 185 190 201 223 151 210 157 96 163 200 215 196 178 188 232 151 140 125 126 136 182 83 149 143 231 90 10 116 182 245 265 332 7 13 25 345 14 141 136 137 162 191 194 68 91 126 164 158
147 148 140 152 168 182 184 192 191 162 212 236 104 177 204 229 259 216 196 83 312 158 100 59 38 89 25 110 176 79 242 215 183 190 218 224 240 37 16 9 357 348 22 167 143 152 188 195 204 216 211 175 165 142
118 99 122 162 179 185 188 177 170 188 255 252 229 39 310 78 310 42 93 104 304 128 78 61 100 83 221 176 146 209 172 193 212 199 205 137 36 6 347 342 360 352 349 50 163 176 184 193 218 237 184 181 176 169
113 113 164 167 180 191 193 187 152 216 252 0 342 293 212 96 186 138 91 324 326 64 82 89 91 191 147 120 195 70 183 193 164 139 95 70 53 360 349 4 7 12 12 13 104 219 226 236 248 205 197 205 182 189
82 134 148 163 173 153 49 44 145 204 37 5 73 311 350 47 107 39 12 360 64 73 69 125 151 57 156 148 337 287 88 80 67 87 81 22 9 348 6 9 21 45 53 49 59 63 70 64 53 28 25 0 354 1
101 102 128 104 137 101 73 16 34 68 30 62 39 331 47 340 356 31 43 22 71 106 81 28 71 71 209 133 133 75 47 72 102 74 236 273 75 57 352 358 80 59 65 62 82 105 111 116 128 108 90 66 31 17
70 38 26 35 60 74 61 4 40 56 43 297 31 17 114 177 306 360 31 21 43 58 43 45 3 209 160 177 148 148 133 185 131 84 34 341 326 16 342 74 88 63 59 63 75 133 147 170 242 173 145 150 130 202
49 355 14 38 37 48 83 4 38 65 332 40 320 55 359 25 40 26 357 352 51 48 39 281 225 51 58 96 114 110 105 121 121 145 181 243 282 271 257 260 140 49 87 132 244 290 277 228 201 216 212 155 159 180
16 16 57 26 56 27 53 6 57 284 55 286 23 36 43 44 4 305 261 44 69 210 189 83 188 163 95 89 100 95 107 70 50 68 91 357 356 350 322 262 206 306 280 241 223 238 255 261 256 286 323 19 151 249
46 40 45 19 55 41 302 351 49 1 73 0 21 40 10 68 249 25 51 224 246 85 44 70 141 136 123 160 106 1 200 148 317 306 300 295 280 285 301 313 218 62 342 339 313 272 270 278 242 234 295 264 247 266
33 64 70 34 54 28 317 353 325 56 59 58 26 7 360 322 353 56 162 279 264 338 17 359 297 85 32 36 351 328 327 2 306 323 340 31 44 14 39 44 43 60 109 122 34 23 7 352 345 359 237 242 233 236
87 292 109 293 217 146 163 164 190 72 127 153 178 240 286 32 62 21 215 280 321 331 328 352 14 70 118 61 37 358 1 49 57 79 344 99 110 34 16 10 0 357 345 45 14 26 6 14 23 13 26 35 39 325
87 219 145 149 179 153 161 163 171 184 152 140 204 206 63 93 118 247 247 259 15 30 58 80 102 85 51 69 68 22 337 346 73 60 278 211 133 144 285 343 349 324 355 105 75 36 24 27 36 41 58 47 29 21
90 167 225 219 143 132 135 117 112 104 158 161 170 126 115 157 202 255 312 335 123 203 160 116 95 93 107 357 327 325 330 14 106 236 265 296 311 249 189 241 287 239 275 94 105 120 125 116 44 13 6 343 332 328
33 53 93 8 56 22 52 93 124 155 223 241 88 138 150 190 222 292 216 298 88 43 34 21 30 47 31 343 333 358 4 5 3 13 13 15 30 22 28 41 349 314 328 328 301 239 211 195 249 285 296 280 275 346
42 25 72 49 43 23 22 28 353 20 3 70 100 103 301 42 195 22 303 295 353 62 37 14 342 360 9 8 21 22 30 42 41 21 20 353 358 336 355 15 16 15 21 28 4 328 314 318 305 290 284 309 285 116
214 87 90 95 113 177 250 186 270 287 33 145 146 9 359 338 256 225 358 358 33 266 252 253 266 340 310 14 335 333 323 313 300 176 235 296 276 274 22 19 12 358 357 11 346 325 335 348 329 343 341 99 38 25
31 67 83 134 189 230 224 210 253 285 317 314 314 133 239 269 323 357 25 324 263 247 243 273 294 274 251 316 311 307 314 311 23 97 143 153 136 49 357 337 327 325 327 329 327 319 313 312 304 274 221 225 219 217
50 54 30 359 332 326 11 29 225 201 232 205 254 224 306 9 268 40 2 1 17 23 357 6 23 338 336 316 283 201 198 265 325 21 95 130 165 269 316 317 322 327 322 315 309 303 303 301 290 290 305 256 199 201
36 274 247 237 290 281 335 7 269 246 217 206 227 209 210 185 110 16 337 4 7 343 335 311 291 292 345 353 332 331 349 340 223 186 177 189 191 213 287 303 310 310 310 299 294 294 302 305 303 297 292 219 224 237